Flag for U.S.A. Weather past 2 weeks in Shreveport, Louisiana, U.S.A.

Now
73 °F

Passing clouds.


Feels Like: 72 °F
Forecast: 75 / 95 °F
Wind: No wind

Location: Shreveport Regional Airport

Current Time: Aug 20, 2014 at 6:05:44 AM

Latest Report: Aug 20, 2014 at 4:56 AM


Visibility: 10 mi

Pressure: 29.94 "Hg

Humidity: 84%

Dew point: 68 °F

Location of ShreveportLocation

Historic Weather in Shreveport — Graph

°F

Shreveport temperature yesterday

Maximum temperature yesterday: 94 °F (at 2:56 PM)
Minimum temperature yesterday: 74 °F (at 5:56 AM)
Average temperature yesterday: 82 °F

Past Weeks' High & Low Weather Summary

 TemperatureHumidityPressure
High96 °F (Aug 16, 3:56 PM)97% (Aug 5, 6:56 AM)30.08 "Hg (Aug 5, 6:56 AM)
Low64 °F (Aug 15, 5:56 AM)33% (Aug 12, 3:56 PM)29.83 "Hg (Aug 7, 6:56 PM)
Average83 °F70%29.96 "Hg
* Reported Aug 5 4:56 AM — Aug 20 4:56 AM, Shreveport, Weather by CustomWeather, © 2014

Note: Actual official high and low records may vary slightly from our data, if they occured in-between our weather recording intervals... More about our weather records

Advertising

Shreveport weather history for previous 24 hours

 ConditionsComfort  
Time TempWeatherWind HumidityBarometerVisibility
4:56 AM
Aug 20
73 °FPassing clouds.No wind84%29.94 "Hg10 mi
3:56 AM72 °FPassing clouds.No wind87%29.93 "Hg10 mi
2:56 AM75 °FPartly cloudy.No wind79%29.92 "Hg10 mi
1:56 AM75 °FPassing clouds.5 mph79%29.92 "Hg10 mi
12:56 AM76 °FPassing clouds.No wind77%29.92 "Hg10 mi
11:56 PM
Aug 19
75 °FHigh level clouds.7 mph79%29.91 "Hg10 mi
10:56 PM75 °FHigh level clouds.3 mph79%29.90 "Hg10 mi
9:56 PM76 °FHigh level clouds.5 mph77%29.90 "Hg10 mi
8:56 PM77 °FPassing clouds.3 mph74%29.90 "Hg10 mi
7:56 PM78 °FSunny.3 mph74%29.90 "Hg10 mi
6:56 PM79 °FPartly sunny.10 mph74%29.91 "Hg10 mi
5:56 PM92 °FPartly sunny.10 mph47%29.88 "Hg10 mi
4:56 PM94 °FBroken clouds.5 mph44%29.86 "Hg10 mi
3:56 PM94 °FBroken clouds.7 mph48%29.88 "Hg10 mi
2:56 PM94 °FScattered clouds.12 mph48%29.89 "Hg10 mi
1:56 PM93 °FScattered clouds.9 mph50%29.91 "Hg10 mi
12:56 PM91 °FSunny.8 mph54%29.93 "Hg10 mi
11:56 AM90 °FBroken clouds.14 mph56%29.94 "Hg10 mi
10:56 AM88 °FBroken clouds.10 mph59%29.95 "Hg10 mi
9:56 AM84 °FScattered clouds.10 mph70%29.94 "Hg10 mi
8:56 AM81 °FScattered clouds.7 mph82%29.94 "Hg10 mi
7:56 AM76 °FScattered clouds.3 mph94%29.93 "Hg9 mi
6:56 AM75 °FPartly cloudy.No wind94%29.91 "Hg10 mi
Weather by CustomWeather, © 2014

See weather overviewHow to use our weather pages